Flag for Honduras Weather past 2 weeks in Choloma, Honduras

Now
91 °F

Passing clouds.


Feels Like: 108 °F
Forecast: N/A
Wind: 14 mph from North

Location: La Mesa San Pedro Sula

Current Time: Sep 1, 2015 at 5:25:38 PM

Latest Report: Sep 1, 2015 at 5:00 PM


Visibility: N/A

Pressure: 29.83 "Hg

Humidity: 67%

Dew point: 79 °F

Location of CholomaLocation

Historic Weather in Choloma — Graph

°F

Choloma temperature yesterday

Maximum temperature yesterday: 97 °F (at 1:00 PM)
Minimum temperature yesterday: 77 °F (at 3:00 AM)
Average temperature yesterday: 86 °F

Past Weeks' High & Low Weather Summary

 TemperatureHumidityPressure
High99 °F (Aug 20, 1:00 PM)100% (Aug 17, 11:00 PM)29.98 "Hg (Aug 17, 11:00 PM)
Low73 °F (Aug 20, 8:00 PM)44% (Aug 20, 1:00 PM)29.77 "Hg (Aug 19, 4:00 PM)
Average85 °F81%29.89 "Hg
* Reported Aug 17 3:00 PM — Sep 1 3:00 PM, Choloma, Weather by CustomWeather, © 2015

Note: Actual official high and low records may vary slightly from our data, if they occured in-between our weather recording intervals... More about our weather records

Advertising

Choloma weather history for previous 24 hours

 ConditionsComfort  
Time TempWeatherWind HumidityBarometerVisibility
3:00 PM
Tue, Sep 1
95 °FPartly sunny.15 mph56%29.83 "HgN/A
2:00 PM97 °FBroken clouds.14 mph53%29.83 "HgN/A
1:00 PM95 °FBroken clouds.10 mph50%29.86 "HgN/A
12:00 PM95 °FBroken clouds.8 mph50%29.89 "HgN/A
11:00 AM93 °FPartly sunny.8 mph53%29.92 "HgN/A
10:00 AM90 °FPartly sunny.5 mph59%29.95 "HgN/A
9:00 AM86 °FPartly sunny.2 mph75%29.95 "HgN/A
8:00 AM84 °FPartly sunny.3 mph79%29.95 "HgN/A
7:00 AM81 °FPartly sunny.3 mph84%29.92 "HgN/A
6:00 AM77 °FScattered clouds.No wind89%29.95 "HgN/A
5:00 AM77 °FPassing clouds.2 mph94%29.92 "HgN/A
3:00 AM79 °FPassing clouds.No wind94%N/AN/A
2:00 AM81 °FPassing clouds.No wind94%29.92 "HgN/A
1:00 AM81 °FPassing clouds.No wind89%29.92 "HgN/A
12:00 AM81 °FPassing clouds.5 mph89%29.95 "HgN/A
11:00 PM
Mon, Aug 31
82 °FPassing clouds.No wind79%29.95 "HgN/A
10:00 PM82 °FPassing clouds.2 mph84%29.95 "HgN/A
9:00 PM82 °FPassing clouds.7 mph94%29.95 "HgN/A
8:00 PM84 °FPassing clouds.9 mph89%29.92 "HgN/A
7:00 PM84 °FPassing clouds.9 mph89%29.89 "HgN/A
6:01 PM86 °FBroken clouds.14 mph84%29.86 "HgN/A
5:00 PM90 °FThunderstorms. Scattered clouds.16 mph71%29.86 "HgN/A
Weather by CustomWeather, © 2015

See weather overviewHow to use our weather pages